Latest Coastal Weather Observations for Creal Reef

IDQ60701

Issued at 8:31 am EST Wednesday 23 August 2017 (issued every 10 minutes, with the page automatically refreshed every 10 minutes)

About coastal observations | Map of coastal stations | Coastal observations for QLD | Marine services | Other Formats
Station Details ID: 200736 Name: CREAL REEF Lat: -20.53 Lon: 150.38 Height: 1.7 m
Data from the previous 72 hours. | See also: Recent months for locations in Queensland
Date/Time
EST
Temp
°C
Wind Pressure Rain since
9am
mm
Weather Cloud Vis
km
Sea
Height
m
Swell
Dir  Spd
kts
Gust
kts
hPa Trend Height
m
Period
s
Dir
23/08:30am 22.8 ENE 10 12 1019.7 - - - - - - - - -
23/08:20am 22.9 E 11 11 1019.5 - - - - - - - - -
23/08:00am 22.9 E 10 12 1019.5 - - - - - - - - -
23/07:30am 22.9 ENE 10 13 1019.2 - - - - - - - - -
23/07:20am 22.9 E 9 - 1019.1 - - - - - - - - -
23/07:00am 22.8 E 10 11 1019.0 - - - - - - - - -
23/06:30am 22.4 E 9 11 1018.8 - - - - - - - - -
23/06:20am 22.4 ENE 9 - 1018.7 - - - - - - - - -
23/06:00am 22.3 ENE 10 13 1018.7 - - - - - - - - -
23/05:30am 22.4 ENE 10 13 1018.5 - - - - - - - - -
23/05:20am 22.3 ENE 10 - 1018.3 - - - - - - - - -
23/05:00am 22.3 ENE 10 14 1018.3 - - - - - - - - -
23/04:30am 22.4 ENE 10 13 1018.3 - - - - - - - - -
23/04:20am 22.4 ENE 11 - 1018.2 - - - - - - - - -
23/04:00am 22.4 ENE 12 15 1018.2 - - - - - - - - -
23/03:30am 22.5 E 13 15 1018.3 - - - - - - - - -
23/03:20am 22.5 ENE 15 - 1018.0 - - - - - - - - -
23/03:00am 22.5 E 13 16 1018.2 - - - - - - - - -
23/02:30am 22.6 ENE 12 14 1018.4 - - - - - - - - -
23/02:20am 22.5 ENE 12 - 1018.3 - - - - - - - - -
23/02:00am 22.5 E 13 15 1018.6 - - - - - - - - -
23/01:30am 22.6 ENE 14 16 1018.9 - - - - - - - - -
23/01:20am 22.6 ENE 15 - 1018.9 - - - - - - - - -
23/01:00am 22.7 ENE 14 16 1019.2 - - - - - - - - -
23/12:30am 22.6 ENE 13 15 1019.3 - - - - - - - - -
23/12:20am 22.7 ENE 13 - 1019.2 - - - - - - - - -
23/12:00am 22.6 ENE 12 14 1019.4 - - - - - - - - -
 
Date/Time
EST
Temp
°C
Wind Pressure Rain since
9am
mm
Weather Cloud Vis
km
Sea
Height
m
Swell
Dir  Spd
kts
Gust
kts
hPa Trend Height
m
Period
s
Dir
22/11:30pm 22.6 ENE 12 15 1019.5 - - - - - - - - -
22/11:20pm 22.7 ENE 15 - 1019.4 - - - - - - - - -
22/11:00pm 22.7 ENE 14 16 1019.5 - - - - - - - - -
22/10:30pm 22.7 ENE 14 16 1019.4 - - - - - - - - -
22/10:20pm 22.7 ENE 14 - 1019.3 - - - - - - - - -
22/10:00pm 22.6 ENE 14 16 1019.3 - - - - - - - - -
22/09:30pm 22.7 ENE 14 16 1019.4 - - - - - - - - -
22/09:20pm 22.7 ENE 13 - 1019.2 - - - - - - - - -
22/09:00pm 22.7 ENE 13 15 1019.3 - - - - - - - - -
22/08:30pm 22.7 E 13 16 1019.2 - - - - - - - - -
22/08:20pm 22.6 E 13 - 1019.0 - - - - - - - - -
22/08:00pm 22.6 E 13 15 1019.0 - - - - - - - - -
22/07:30pm 22.6 E 13 14 1018.7 - - - - - - - - -
22/07:20pm 22.5 E 12 - 1018.5 - - - - - - - - -
22/07:00pm 22.5 E 12 13 1018.4 - - - - - - - - -
22/06:30pm 22.5 E 11 14 1018.1 - - - - - - - - -
22/06:20pm 22.6 E 11 - 1017.9 - - - - - - - - -
22/06:00pm 22.5 E 11 13 1017.8 - - - - - - - - -
22/05:30pm 22.8 E 10 12 1017.6 - - - - - - - - -
22/05:20pm 22.6 E 10 - 1017.5 - - - - - - - - -
22/05:00pm 23.0 E 10 11 1017.4 - - - - - - - - -
22/04:30pm 23.0 E 9 11 1017.1 - - - - - - - - -
22/04:20pm 23.0 E 9 - 1016.9 - - - - - - - - -
22/04:00pm 23.0 E 9 11 1016.8 - - - - - - - - -
22/03:30pm 23.0 E 9 11 1016.8 - - - - - - - - -
22/03:20pm 23.0 E 10 - 1016.7 - - - - - - - - -
22/03:00pm 23.1 E 9 11 1016.8 - - - - - - - - -
22/02:30pm 23.1 E 8 9 1016.9 - - - - - - - - -
22/02:20pm 23.1 E 7 - 1016.9 - - - - - - - - -
22/02:00pm 23.0 E 7 9 1017.1 - - - - - - - - -
22/01:30pm 23.0 E 8 9 1017.4 - - - - - - - - -
22/01:20pm 23.0 E 7 - 1017.3 - - - - - - - - -
22/01:00pm 23.0 E 8 9 1017.6 - - - - - - - - -
22/12:30pm 23.0 E 7 9 1017.9 - - - - - - - - -
22/12:20pm 23.0 E 8 - 1017.9 - - - - - - - - -
22/12:00pm 23.1 E 7 8 1018.2 - - - - - - - - -
22/11:30am 23.1 ENE 7 9 1018.7 - - - - - - - - -
22/11:20am 23.0 E 7 - 1018.8 - - - - - - - - -
22/11:00am 22.9 ENE 7 8 1019.1 - - - - - - - - -
22/10:30am 23.4 ENE 6 7 1019.3 - - - - - - - - -
22/10:20am 23.1 ENE 7 - 1019.2 - - - - - - - - -
22/10:00am 23.2 ENE 6 8 1019.3 - - - - - - - - -
22/09:30am 23.2 ENE 7 8 1019.4 - - - - - - - - -
22/09:20am 23.2 ENE 7 - 1019.2 - - - - - - - - -
22/09:00am 23.3 ENE 6 7 1019.2 - - - - - - - - -
22/08:30am 23.2 NNE 4 6 1019.1 - - - - - - - - -
22/08:20am 23.1 NE 5 - 1019.0 - - - - - - - - -
22/08:00am 23.0 NE 5 6 1019.1 - - - - - - - - -
22/07:30am 23.1 NNE 6 7 1018.8 - - - - - - - - -
22/07:20am 22.9 NE 5 - 1018.6 - - - - - - - - -
22/07:00am 22.7 NE 7 9 1018.4 - - - - - - - - -
22/06:30am 22.6 NNE 9 11 1017.8 - - - - - - - - -
22/06:20am 22.6 NE 10 - 1017.4 - - - - - - - - -
22/06:00am 22.5 NNE 10 11 1017.4 - - - - - - - - -
22/05:30am 22.6 NNE 9 10 1017.2 - - - - - - - - -
22/05:20am 22.6 NE 8 - 1017.1 - - - - - - - - -
22/05:00am 22.7 NE 8 9 1017.1 - - - - - - - - -
22/04:30am 22.6 NE 8 11 1016.9 - - - - - - - - -
22/04:20am 22.6 NE 9 - 1016.7 - - - - - - - - -
22/04:00am 22.5 NE 9 11 1017.0 - - - - - - - - -
22/03:30am 22.6 NE 9 10 1017.0 - - - - - - - - -
22/03:20am 22.6 NE 8 - 1017.0 - - - - - - - - -
22/03:00am 22.6 NE 9 11 1017.2 - - - - - - - - -
22/02:30am 22.6 NE 10 11 1017.4 - - - - - - - - -
22/02:20am 22.6 NE 10 - 1017.4 - - - - - - - - -
22/02:00am 22.6 ENE 9 12 1017.5 - - - - - - - - -
22/01:30am 22.6 ENE 10 12 1017.9 - - - - - - - - -
22/01:20am 22.7 ENE 11 - 1017.9 - - - - - - - - -
22/01:00am 22.7 ENE 10 15 1018.2 - - - - - - - - -
22/12:30am 22.5 ENE 12 14 1018.3 - - - - - - - - -
22/12:20am 22.5 ENE 12 - 1018.4 - - - - - - - - -
22/12:00am 22.6 E 11 13 1018.8 - - - - - - - - -
 
Date/Time
EST
Temp
°C
Wind Pressure Rain since
9am
mm
Weather Cloud Vis
km
Sea
Height
m
Swell
Dir  Spd
kts
Gust
kts
hPa Trend Height
m
Period
s
Dir
21/11:30pm 22.5 E 8 10 1018.8 - - - - - - - - -
21/11:20pm 22.4 E 8 - 1018.8 - - - - - - - - -
21/11:00pm 22.1 E 9 11 1019.0 - - - - - - - - -
21/10:30pm 22.1 E 9 11 1019.0 - - - - - - - - -
21/10:20pm 22.0 E 9 - 1018.9 - - - - - - - - -
21/10:00pm 22.3 ENE 9 11 1018.9 - - - - - - - - -
21/09:30pm 22.2 ENE 10 12 1018.8 - - - - - - - - -
21/09:20pm 22.2 ENE 9 - 1018.7 - - - - - - - - -
21/09:00pm 22.1 E 7 8 1018.8 - - - - - - - - -
21/08:30pm 22.1 E 7 9 1018.7 - - - - - - - - -
21/08:20pm 22.1 E 8 - 1018.6 - - - - - - - - -
21/08:00pm 22.0 ENE 8 10 1018.5 - - - - - - - - -
21/07:30pm 22.1 E 11 13 1018.3 - - - - - - - - -
21/07:20pm 22.1 ENE 11 - 1018.0 - - - - - - - - -
21/07:00pm 22.0 E 10 13 1017.9 - - - - - - - - -
21/06:30pm 22.1 E 10 13 1017.7 - - - - - - - - -
21/06:20pm 22.0 ENE 10 - 1017.6 - - - - - - - - -
21/06:00pm 21.8 ENE 11 14 1017.5 - - - - - - - - -
21/05:30pm 22.0 E 11 14 1017.1 - - - - - - - - -
21/05:20pm 22.1 E 11 - 1016.9 - - - - - - - - -
21/05:00pm 22.2 E 10 12 1016.9 - - - - - - - - -
21/04:30pm 22.1 E 12 14 1016.7 - - - - - - - - -
21/04:20pm 21.9 E 14 - 1016.6 - - - - - - - - -
21/04:00pm 21.8 E 15 17 1016.4 - - - - - - - - -
21/03:30pm 21.9 ESE 14 16 1016.3 - - - - - - - - -
21/03:20pm 21.9 ESE 15 - 1016.1 - - - - - - - - -
21/03:00pm 22.2 E 14 18 1016.3 - - - - - - - - -
21/02:30pm 22.4 E 14 16 1016.5 - - - - - - - - -
21/02:20pm 22.3 E 14 - 1016.5 - - - - - - - - -
21/02:00pm 22.2 E 14 16 1016.8 - - - - - - - - -
21/01:30pm 22.6 E 13 15 1017.1 - - - - - - - - -
21/01:20pm 22.3 E 14 - 1017.1 - - - - - - - - -
21/01:00pm 22.8 E 9 11 1017.4 - - - - - - - - -
21/12:30pm 22.0 SSE 5 7 1017.8 - - - - - - - - -
21/12:20pm 21.7 SSE 6 - 1017.8 - - - - - - - - -
21/12:00pm 21.8 SE 8 10 1018.2 - - - - - - - - -
21/11:30am 21.7 E 4 5 1018.4 - - - - - - - - -
21/11:20am 21.5 NE 5 - 1018.4 - - - - - - - - -
21/11:00am 21.1 NE 7 9 1018.8 - - - - - - - - -
21/10:30am 20.2 E 11 15 1019.3 - - - - - - - - -
21/10:20am 20.7 E 15 - 1019.2 - - - - - - - - -
21/10:00am 21.8 ENE 14 17 1019.2 - - - - - - - - -
21/09:30am 20.6 ESE 16 23 1019.3 - - - - - - - - -
21/09:20am 20.7 ESE 19 - 1019.2 - - - - - - - - -
21/09:00am 21.5 SE 16 18 1019.0 - - - - - - - - -
21/08:30am 21.5 ESE 18 21 1018.6 - - - - - - - - -
21/08:20am 21.4 ESE 19 - 1018.3 - - - - - - - - -
21/08:00am 21.9 ESE 16 20 1018.3 - - - - - - - - -
21/07:30am 21.6 ESE 18 20 1018.1 - - - - - - - - -
21/07:20am 21.6 ESE 20 - 1017.8 - - - - - - - - -
21/07:00am 21.7 ESE 20 23 1017.7 - - - - - - - - -
21/06:30am 21.5 ESE 19 23 1017.3 - - - - - - - - -
21/06:20am 21.3 ESE 21 - 1017.1 - - - - - - - - -
21/06:14am 21.4 ESE 20 25 1017.1 - - - - - - - - -
21/06:00am 20.7 E 17 26 1017.0 - - - - - - - - -
21/05:30am 21.3 ESE 17 21 1016.5 - - - - - - - - -
21/05:20am 21.2 ESE 15 - 1016.3 - - - - - - - - -
21/05:00am 21.2 ESE 16 19 1016.4 - - - - - - - - -
21/04:30am 20.7 SE 15 19 1016.3 - - - - - - - - -
21/04:20am 20.6 SE 14 - 1016.2 - - - - - - - - -
21/04:00am 20.5 SE 16 19 1016.3 - - - - - - - - -
21/03:30am 20.2 SSE 17 20 1016.3 - - - - - - - - -
21/03:20am 20.4 SE 17 - 1016.2 - - - - - - - - -
21/03:00am 20.0 SE 16 20 1016.5 - - - - - - - - -
21/02:30am 20.0 SE 18 21 1016.7 - - - - - - - - -
21/02:20am 20.3 SE 19 - 1016.6 - - - - - - - - -
21/02:00am 20.2 SE 18 22 1016.9 - - - - - - - - -
21/01:30am 19.9 SE 16 20 1017.2 - - - - - - - - -
21/01:20am 19.7 SE 16 - 1017.3 - - - - - - - - -
21/01:00am 19.7 SE 18 22 1017.6 - - - - - - - - -
21/12:30am 19.6 SE 17 21 1017.8 - - - - - - - - -
21/12:20am 19.7 SE 16 - 1017.8 - - - - - - - - -
21/12:00am 19.7 SE 16 22 1018.0 - - - - - - - - -
 
Date/Time
EST
Temp
°C
Wind Pressure Rain since
9am
mm
Weather Cloud Vis
km
Sea
Height
m
Swell
Dir  Spd
kts
Gust
kts
hPa Trend Height
m
Period
s
Dir
20/11:30pm 19.5 SE 18 22 1018.3 - - - - - - - - -
20/11:20pm 19.3 SE 17 - 1018.2 - - - - - - - - -
20/11:00pm 19.1 SE 18 23 1018.4 - - - - - - - - -
20/10:30pm 18.9 SSE 17 22 1018.5 - - - - - - - - -
20/10:20pm 19.0 SSE 17 - 1018.4 - - - - - - - - -
20/10:00pm 19.0 SSE 15 20 1018.6 - - - - - - - - -
20/09:30pm 18.6 SSE 16 20 1018.9 - - - - - - - - -
20/09:20pm 18.8 SSE 16 - 1018.8 - - - - - - - - -
20/09:00pm 18.9 SSE 16 22 1019.0 - - - - - - - - -
20/08:30pm 18.7 SSE 17 22 1019.1 - - - - - - - - -
20/08:20pm 18.8 SSE 18 - 1018.9 - - - - - - - - -
20/08:00pm 18.7 SSE 18 22 1018.8 - - - - - - - - -
20/07:30pm 18.4 SSE 17 22 1018.8 - - - - - - - - -
20/07:20pm 18.7 SSE 17 - 1018.6 - - - - - - - - -
20/07:00pm 18.5 S 19 26 1018.5 - - - - - - - - -
20/06:30pm 18.4 S 17 21 1018.2 - - - - - - - - -
20/06:20pm 18.4 SSE 17 - 1018.0 - - - - - - - - -
20/06:00pm 18.4 S 17 21 1018.0 - - - - - - - - -
20/05:30pm 18.3 S 18 23 1017.6 - - - - - - - - -
20/05:20pm 18.3 S 18 - 1017.4 - - - - - - - - -
20/05:00pm 18.4 SSE 18 24 1017.4 - - - - - - - - -
20/04:30pm 18.3 S 20 23 1017.3 - - - - - - - - -
20/04:20pm 18.2 S 20 - 1017.2 - - - - - - - - -
20/04:00pm 18.5 S 19 24 1017.1 - - - - - - - - -
20/03:30pm 18.5 SSE 17 22 1017.0 - - - - - - - - -
20/03:20pm 18.4 S 19 - 1016.9 - - - - - - - - -
20/03:00pm 18.5 S 19 22 1017.0 - - - - - - - - -
20/02:30pm 18.4 S 18 23 1016.9 - - - - - - - - -
20/02:20pm 18.4 S 19 - 1016.8 - - - - - - - - -
20/02:00pm 18.4 S 21 25 1016.9 - - - - - - - - -
20/01:30pm 18.5 S 21 25 1017.4 - - - - - - - - -
20/01:20pm 18.7 S 21 - 1017.4 - - - - - - - - -
20/01:00pm 18.9 S 20 27 1017.5 - - - - - - - - -
20/12:30pm 18.4 S 20 25 1018.0 - - - - - - - - -
20/12:20pm 18.5 S 20 - 1018.0 - - - - - - - - -
20/12:00pm 18.7 S 20 25 1018.3 - - - - - - - - -
20/11:30am 19.0 S 20 24 1018.8 - - - - - - - - -
20/11:20am 19.1 S 20 - 1018.9 - - - - - - - - -
20/11:00am 18.9 S 22 26 1019.1 - - - - - - - - -
20/10:30am 19.4 S 21 25 1019.2 - - - - - - - - -
20/10:20am 19.1 S 23 - 1019.1 - - - - - - - - -
20/10:00am 19.3 S 23 29 1019.3 - - - - - - - - -
20/09:30am 19.1 S 24 29 1019.3 - - - - - - - - -
20/09:20am 19.2 S 24 - 1019.1 - - - - - - - - -
20/09:00am 19.5 S 25 29 1019.0 - - - - - - - - -

Other Formats:

Comma delimited format used in spreadsheet applications
http://www.bom.gov.au/fwo/IDQ60701/IDQ60701.94371.axf

JavaScript Object Notation format (JSON) in row-major order
http://www.bom.gov.au/fwo/IDQ60701/IDQ60701.94371.json